• In Germany
  • List of Countries
  • For 7 days
  • Water Temperature
  • Satellite Maps
  • Weather Map
  • Weather Widgets
  • user-avatar
    Login

    Hourly Weather Monteria

    Today, 21 September, Thursday

    Time Temperature Precipitation Wind Pressure Humidity
    00:00 +26°C° 0 mm 2 mps 756 mmHg 88%
    01:00 +26°C° 0 mm 2 mps 756 mmHg 87%
    02:00 +26°C° 0 mm 2 mps 756 mmHg 87%
    03:00 +26°C° 0 mm 2 mps 755 mmHg 87%
    04:00 +26°C° 0 mm 2 mps 755 mmHg 87%
    05:00 +26°C° 0 mm 2 mps 756 mmHg 87%
    06:00 +26°C° 0 mm 2 mps 756 mmHg 86%
    07:00 +27°C° 0 mm 2 mps 756 mmHg 85%
    08:00 +29°C° 0 mm 2 mps 756 mmHg 79%
    09:00 +30°C° 0 mm 2 mps 756 mmHg 73%
    10:00 +32°C° 0 mm 2 mps 756 mmHg 68%
    11:00 +34°C° 0 mm 2 mps 755 mmHg 65%
    12:00 +34°C° 0 mm 2 mps 755 mmHg 62%
    13:00 +35°C° 0 mm 2 mps 754 mmHg 59%
    14:00 +35°C° 0 mm 3 mps 754 mmHg 63%
    15:00 +34°C° 0 mm 3 mps 753 mmHg 66%
    16:00 +34°C° 0 mm 4 mps 753 mmHg 69%
    17:00 +32°C° 0.1 mm 4 mps 753 mmHg 74%
    18:00 +30°C° 0.1 mm 3 mps 753 mmHg 80%
    19:00 +28°C° 0.1 mm 3 mps 754 mmHg 85%
    20:00 +28°C° 0.1 mm 2 mps 754 mmHg 87%
    21:00 +28°C° 0.1 mm 2 mps 755 mmHg 88%
    22:00 +27°C° 0.1 mm 2 mps 755 mmHg 89%
    23:00 +27°C° 0.2 mm 2 mps 755 mmHg 90%

    Tomorrow, 22 September, Friday

    Time Temperature Precipitation Wind Pressure Humidity
    00:00 +27°C° 0.2 mm 2 mps 755 mmHg 90%
    01:00 +27°C° 0.2 mm 3 mps 755 mmHg 91%
    02:00 +27°C° 0.5 mm 3 mps 755 mmHg 91%
    03:00 +26°C° 0.5 mm 3 mps 755 mmHg 92%
    04:00 +26°C° 0.5 mm 2 mps 755 mmHg 92%
    05:00 +26°C° 0.1 mm 2 mps 755 mmHg 91%
    06:00 +27°C° 0.1 mm 2 mps 755 mmHg 91%
    07:00 +27°C° 0.1 mm 2 mps 755 mmHg 90%
    08:00 +28°C° 0.1 mm 2 mps 756 mmHg 86%
    09:00 +29°C° 0.1 mm 2 mps 756 mmHg 81%
    10:00 +30°C° 0.1 mm 2 mps 756 mmHg 77%
    11:00 +31°C° 0.3 mm 2 mps 755 mmHg 73%
    12:00 +32°C° 0.3 mm 2 mps 755 mmHg 70%
    13:00 +33°C° 0.3 mm 1 mps 754 mmHg 66%
    14:00 +33°C° 0.3 mm 1 mps 753 mmHg 67%
    15:00 +33°C° 0.3 mm 1 mps 753 mmHg 69%
    16:00 +33°C° 0.3 mm 1 mps 752 mmHg 70%
    17:00 +31°C° 0.4 mm 2 mps 753 mmHg 75%
    18:00 +30°C° 0.4 mm 2 mps 753 mmHg 80%
    19:00 +28°C° 0.4 mm 2 mps 754 mmHg 85%
    20:00 +28°C° 0.5 mm 2 mps 754 mmHg 86%
    21:00 +28°C° 0.5 mm 1 mps 755 mmHg 88%
    22:00 +27°C° 0.5 mm 1 mps 755 mmHg 89%
    23:00 +27°C° 0.8 mm 1 mps 755 mmHg 90%

    Day after tomorrow, 23 September, Saturday

    Time Temperature Precipitation Wind Pressure Humidity
    00:00 +27°C° 0.8 mm 1 mps 755 mmHg 91%
    01:00 +27°C° 0.8 mm 1 mps 755 mmHg 92%
    02:00 +26°C° 1.1 mm 1 mps 754 mmHg 93%
    03:00 +26°C° 1.1 mm 1 mps 754 mmHg 93%
    04:00 +26°C° 1.1 mm 1 mps 754 mmHg 94%
    05:00 +26°C° 0.2 mm 1 mps 754 mmHg 93%
    06:00 +26°C° 0.2 mm 2 mps 755 mmHg 93%
    07:00 +27°C° 0.2 mm 2 mps 755 mmHg 92%
    08:00 +28°C° 0.1 mm 2 mps 756 mmHg 87%
    09:00 +29°C° 0.1 mm 2 mps 756 mmHg 83%
    10:00 +31°C° 0.1 mm 2 mps 756 mmHg 78%
    11:00 +31°C° 0.2 mm 2 mps 755 mmHg 75%
    12:00 +32°C° 0.2 mm 2 mps 755 mmHg 72%
    13:00 +32°C° 0.2 mm 2 mps 754 mmHg 69%
    14:00 +32°C° 0.2 mm 2 mps 754 mmHg 69%
    15:00 +32°C° 0.2 mm 2 mps 753 mmHg 70%
    16:00 +32°C° 0.2 mm 1 mps 753 mmHg 70%
    17:00 +31°C° 0.2 mm 1 mps 753 mmHg 74%
    18:00 +30°C° 0.2 mm 1 mps 754 mmHg 78%
    19:00 +29°C° 0.2 mm 1 mps 754 mmHg 82%
    20:00 +28°C° 0.5 mm 1 mps 755 mmHg 84%
    21:00 +28°C° 0.5 mm 1 mps 755 mmHg 86%
    22:00 +27°C° 0.5 mm 1 mps 756 mmHg 88%
    23:00 +27°C° 0.4 mm 1 mps 755 mmHg 89%

    24 September, Sunday

    Time Temperature Precipitation Wind Pressure Humidity
    00:00 +27°C° 0.4 mm 1 mps 755 mmHg 90%
    01:00 +27°C° 0.4 mm 2 mps 755 mmHg 92%
    02:00 +26°C° 0 mm 1 mps 755 mmHg 92%
    03:00 +26°C° 0 mm 1 mps 754 mmHg 92%
    04:00 +26°C° 0 mm 1 mps 754 mmHg 92%
    05:00 +26°C° 0.1 mm 1 mps 755 mmHg 92%
    06:00 +27°C° 0.1 mm 1 mps 755 mmHg 91%
    07:00 +27°C° 0.1 mm 2 mps 756 mmHg 91%
    08:00 +28°C° 0.1 mm 2 mps 756 mmHg 86%
    09:00 +29°C° 0.1 mm 2 mps 756 mmHg 82%
    10:00 +30°C° 0.1 mm 2 mps 756 mmHg 77%
    11:00 +31°C° 0 mm 2 mps 755 mmHg 74%
    12:00 +32°C° 0 mm 1 mps 754 mmHg 71%
    13:00 +33°C° 0 mm 1 mps 754 mmHg 68%
    14:00 +33°C° 0.1 mm 1 mps 753 mmHg 69%
    15:00 +32°C° 0.1 mm 2 mps 752 mmHg 71%
    16:00 +32°C° 0.1 mm 2 mps 752 mmHg 73%
    17:00 +31°C° 0.2 mm 2 mps 753 mmHg 77%
    18:00 +30°C° 0.2 mm 2 mps 753 mmHg 81%
    19:00 +28°C° 0.2 mm 2 mps 754 mmHg 85%
    20:00 +28°C° 1.2 mm 2 mps 754 mmHg 87%
    21:00 +28°C° 1.2 mm 2 mps 755 mmHg 89%
    22:00 +27°C° 1.2 mm 2 mps 755 mmHg 91%
    23:00 +27°C° 1.2 mm 3 mps 755 mmHg 92%

    25 September, Monday

    Time Temperature Precipitation Wind Pressure Humidity
    00:00 +27°C° 1.2 mm 3 mps 755 mmHg 92%
    01:00 +26°C° 1.2 mm 3 mps 755 mmHg 93%
    02:00 +26°C° 0.6 mm 3 mps 755 mmHg 93%
    03:00 +26°C° 0.6 mm 3 mps 754 mmHg 94%
    04:00 +26°C° 0.6 mm 3 mps 754 mmHg 95%
    05:00 +26°C° 0.4 mm 3 mps 755 mmHg 94%
    06:00 +26°C° 0.4 mm 3 mps 755 mmHg 93%
    07:00 +26°C° 0.4 mm 2 mps 756 mmHg 93%
    08:00 +28°C° 0 mm 3 mps 756 mmHg 87%
    09:00 +29°C° 0 mm 3 mps 756 mmHg 82%
    10:00 +30°C° 0 mm 4 mps 756 mmHg 77%
    11:00 +31°C° 0.3 mm 3 mps 756 mmHg 72%
    12:00 +33°C° 0.3 mm 3 mps 755 mmHg 68%
    13:00 +34°C° 0.3 mm 3 mps 754 mmHg 64%
    14:00 +34°C° 0.1 mm 3 mps 754 mmHg 66%
    15:00 +34°C° 0.1 mm 3 mps 753 mmHg 68%
    16:00 +34°C° 0.1 mm 3 mps 753 mmHg 70%
    17:00 +31°C° 0 mm 3 mps 753 mmHg 75%
    18:00 +30°C° 0 mm 3 mps 754 mmHg 80%
    19:00 +28°C° 0 mm 3 mps 754 mmHg 85%
    20:00 +28°C° 0 mm 3 mps 755 mmHg 86%
    21:00 +27°C° 0 mm 3 mps 755 mmHg 88%
    22:00 +27°C° 0 mm 3 mps 756 mmHg 89%
    23:00 +27°C° 0.8 mm 3 mps 755 mmHg 90%

    26 September, Tuesday

    Time Temperature Precipitation Wind Pressure Humidity
    00:00 +26°C° 0.8 mm 3 mps 755 mmHg 92%
    01:00 +26°C° 0.8 mm 3 mps 755 mmHg 93%
    02:00 +26°C° 0.3 mm 3 mps 755 mmHg 93%
    03:00 +26°C° 0.3 mm 3 mps 755 mmHg 93%
    04:00 +26°C° 0.3 mm 2 mps 755 mmHg 93%
    05:00 +26°C° 0.2 mm 2 mps 755 mmHg 92%
    06:00 +26°C° 0.2 mm 2 mps 756 mmHg 91%
    07:00 +26°C° 0.2 mm 2 mps 756 mmHg 90%
    08:00 +28°C° 0.4 mm 2 mps 756 mmHg 84%
    09:00 +30°C° 0.4 mm 2 mps 756 mmHg 78%
    10:00 +31°C° 0.4 mm 3 mps 756 mmHg 72%
    11:00 +32°C° 0.4 mm 2 mps 756 mmHg 69%
    12:00 +34°C° 0.4 mm 2 mps 755 mmHg 65%
    13:00 +34°C° 0.4 mm 2 mps 754 mmHg 62%
    14:00 +34°C° 0.1 mm 2 mps 754 mmHg 64%
    15:00 +34°C° 0.1 mm 2 mps 753 mmHg 65%
    16:00 +34°C° 0.1 mm 3 mps 753 mmHg 67%
    17:00 +31°C° 0.2 mm 3 mps 753 mmHg 72%
    18:00 +30°C° 0.2 mm 3 mps 754 mmHg 77%
    19:00 +28°C° 0.2 mm 3 mps 755 mmHg 82%
    20:00 +28°C° 0.4 mm 2 mps 755 mmHg 84%
    21:00 +27°C° 0.4 mm 2 mps 755 mmHg 86%
    22:00 +27°C° 0.4 mm 2 mps 756 mmHg 88%
    23:00 +27°C° 1 mm 2 mps 755 mmHg 89%
    Show more